Wetterdaten: aktuell Donnerstag, 04.06.2020 19:36
Datum Zeit Temp. A. Feuchte A. Luftdruck Regen Wind Richtung Richtung Taupunkt Windchill Windben Empfang
04.06.2020 19:36 19,3 C 67 % 994,3 hPa 0,0 l/m 5,4 km/h (1 Bft) NW 315 13,0 C 19,3 C 6,4 km/h (2 Bft) 100 %
04.06.2020 19:34 19,3 C 67 % 994,3 hPa 0,0 l/m 5,4 km/h (1 Bft) NW 317 13,0 C 19,3 C 6,4 km/h (2 Bft) 100 %
04.06.2020 19:32 19,4 C 66 % 994,3 hPa 0,0 l/m 4,9 km/h (1 Bft) NW 320 12,9 C 19,4 C 6,4 km/h (2 Bft) 100 %
04.06.2020 19:30 19,4 C 66 % 994,3 hPa 0,0 l/m 4,9 km/h (1 Bft) N-NW 327 12,9 C 19,4 C 6,4 km/h (2 Bft) 100 %
04.06.2020 19:28 19,4 C 66 % 994,3 hPa 0,0 l/m 4,9 km/h (1 Bft) N-NW 328 12,9 C 19,4 C 6,4 km/h (2 Bft) 100 %
04.06.2020 19:26 19,4 C 67 % 994,3 hPa 0,0 l/m 4,8 km/h (1 Bft) NW 326 13,1 C 19,4 C 4,8 km/h (1 Bft) 100 %
04.06.2020 19:24 19,4 C 67 % 994,2 hPa 0,0 l/m 4,9 km/h (1 Bft) N-NW 330 13,1 C 19,4 C 6,4 km/h (2 Bft) 100 %
04.06.2020 19:22 19,4 C 67 % 994,2 hPa 0,0 l/m 5,7 km/h (1 Bft) N-NW 344 13,1 C 19,4 C 6,4 km/h (2 Bft) 100 %
04.06.2020 19:20 19,4 C 67 % 994,3 hPa 0,0 l/m 5,5 km/h (1 Bft) N-NW 339 13,1 C 19,4 C 8,0 km/h (2 Bft) 100 %
04.06.2020 19:18 19,5 C 67 % 994,3 hPa 0,0 l/m 5,4 km/h (1 Bft) N-NW 328 13,2 C 19,5 C 6,4 km/h (2 Bft) 100 %
04.06.2020 19:16 19,6 C 67 % 994,3 hPa 0,0 l/m 5,5 km/h (1 Bft) N-NW 330 13,3 C 19,6 C 6,4 km/h (2 Bft) 100 %
04.06.2020 19:14 19,6 C 67 % 994,2 hPa 0,0 l/m 5,1 km/h (1 Bft) N-NW 331 13,3 C 19,6 C 6,4 km/h (2 Bft) 100 %
04.06.2020 19:12 19,6 C 67 % 994,3 hPa 0,0 l/m 4,8 km/h (1 Bft) N 359 13,3 C 19,6 C 8,0 km/h (2 Bft) 100 %
04.06.2020 19:10 19,7 C 67 % 994,3 hPa 0,0 l/m 4,7 km/h (1 Bft) NW 323 13,4 C 19,7 C 6,4 km/h (2 Bft) 94 %
04.06.2020 19:08 19,7 C 68 % 994,2 hPa 0,0 l/m 4,8 km/h (1 Bft) N-NW 333 13,6 C 19,7 C 6,4 km/h (2 Bft) 96 %
04.06.2020 19:06 19,7 C 67 % 994,3 hPa 0,0 l/m 4,3 km/h (1 Bft) N-NW 330 13,4 C 19,7 C 4,8 km/h (1 Bft) 100 %
04.06.2020 19:04 19,8 C 67 % 994,2 hPa 0,0 l/m 3,4 km/h (1 Bft) N-NW 329 13,5 C 19,8 C 4,8 km/h (1 Bft) 98 %
04.06.2020 19:02 19,8 C 67 % 994,1 hPa 0,0 l/m 4,1 km/h (1 Bft) N-NW 333 13,5 C 19,8 C 6,4 km/h (2 Bft) 100 %
04.06.2020 19:00 19,8 C 65 % 994,2 hPa 0,0 l/m 6,4 km/h (2 Bft) N-NO 27 13,0 C 19,8 C 8,0 km/h (2 Bft) 100 %
04.06.2020 18:58 19,8 C 66 % 994,1 hPa 0,0 l/m 6,8 km/h (2 Bft) N-NO 32 13,3 C 19,6 C 9,7 km/h (2 Bft) 100 %
04.06.2020 18:56 19,8 C 66 % 994,1 hPa 0,0 l/m 5,8 km/h (2 Bft) N-NO 26 13,3 C 19,8 C 8,0 km/h (2 Bft) 100 %
04.06.2020 18:54 19,8 C 66 % 994,2 hPa 0,0 l/m 5,9 km/h (2 Bft) N 358 13,3 C 19,8 C 8,0 km/h (2 Bft) 100 %
04.06.2020 18:52 19,9 C 65 % 994,2 hPa 0,0 l/m 6,4 km/h (2 Bft) N-NO 29 13,1 C 19,9 C 9,7 km/h (2 Bft) 100 %
04.06.2020 18:50 19,8 C 65 % 994,1 hPa 0,0 l/m 6,9 km/h (2 Bft) N-NO 17 13,0 C 19,6 C 8,0 km/h (2 Bft) 100 %
04.06.2020 18:48 19,8 C 65 % 994,2 hPa 0,0 l/m 6,3 km/h (2 Bft) N-NO 18 13,0 C 19,8 C 8,0 km/h (2 Bft) 100 %
04.06.2020 18:46 19,8 C 65 % 994,1 hPa 0,0 l/m 5,8 km/h (2 Bft) NO 35 13,0 C 19,8 C 8,0 km/h (2 Bft) 100 %
04.06.2020 18:44 19,8 C 66 % 994,2 hPa 0,0 l/m 4,3 km/h (1 Bft) NO 44 13,3 C 19,8 C 6,4 km/h (2 Bft) 100 %
04.06.2020 18:42 19,9 C 66 % 994,2 hPa 0,0 l/m 4,9 km/h (1 Bft) N-NO 12 13,4 C 19,9 C 6,4 km/h (2 Bft) 100 %
04.06.2020 18:40 19,9 C 66 % 994,2 hPa 0,0 l/m 6,1 km/h (2 Bft) NO 41 13,4 C 19,9 C 6,4 km/h (2 Bft) 100 %
04.06.2020 18:38 19,9 C 65 % 994,2 hPa 0,0 l/m 6,9 km/h (2 Bft) N-NO 20 13,1 C 19,7 C 8,0 km/h (2 Bft) 100 %
04.06.2020 18:36 19,9 C 65 % 994,3 hPa 0,0 l/m 6,6 km/h (2 Bft) N 11 13,1 C 19,8 C 9,7 km/h (2 Bft) 100 %
_ Min-Zeit 05:02 11:30 18:46 - 00:58 - - 03:42 00:00 00:58 11:34
Minimum _ 11,6 C 56 % 994,1 hPa - 0,0 km/h (0 Bft) - - 8,2 C 10,6 C 0,0 km/h (0 Bft) 91 %
_ Max-Zeit 15:54 06:00 00:02 00:00 00:00 - - 15:52 15:54 00:00 00:02
Maximum _ 22,6 C 84 % 1002,2 hPa 0,0 l/m 15,7 km/h
N-NO (3 Bft)
- - 14,3 C 22,6 C 20,9 km/h
N (4 Bft)
100 %
Durchschnitt _ 17,0 C 69 % 998,2 hPa #0,0 l/m 3,9 km/h (1 Bft) N-NW - 11,1 C 16,7 C 5,7 km/h (1 Bft) 100 %